Total_Precipitation_Accumulation
0.14 0.10 0.13 0.11 0.07 0.03 0.02 0.00 0.00 0.00 0.00 0.00 0.00 0.00 0.00 0.00 0.00 0.00 0.00 0.00 0.00 0.00 0.00 0.02 0.06 0.09 0.14 0.29 0.26 0.26 0.24 0.16 0.09 0.08 0.06 0.05 0.05 0.06 0.09 0.11 0.13 0.13 0.14
0.25 0.16 0.15 0.10 0.06 0.08 0.04 0.02 0.00 0.00 0.00 0.00 0.00 0.00 0.00 0.00 0.00 0.00 0.00 0.00 0.00 0.00 0.00 0.00 0.02 0.09 0.21 0.26 0.23 0.31 0.33 0.18 0.10 0.10 0.08 0.07 0.08 0.10 0.13 0.15 0.15 0.16 0.18
0.12 0.14 0.15 0.16 0.18 0.25 0.21 0.11 0.02 0.00 0.00 0.00 0.00 0.00 0.00 0.00 0.00 0.00 0.00 0.00 0.00 0.00 0.00 0.00 0.02 0.10 0.21 0.14 0.20 0.29 0.38 0.30 0.22 0.19 0.14 0.10 0.11 0.14 0.17 0.19 0.20 0.19 0.18
0.17 0.11 0.07 0.07 0.20 0.35 0.34 0.17 0.06 0.04 0.00 0.00 0.00 0.00 0.00 0.00 0.00 0.00 0.00 0.00 0.00 0.00 0.00 0.00 0.02 0.06 0.06 0.09 0.14 0.21 0.32 0.40 0.32 0.26 0.26 0.19 0.17 0.17 0.19 0.23 0.24 0.24 0.27
0.43 0.27 0.15 0.10 0.18 0.28 0.26 0.21 0.18 0.16 0.09 0.02 0.00 0.00 0.00 0.00 0.00 0.00 0.00 0.00 0.00 0.00 0.00 0.00 0.00 0.00 0.02 0.08 0.10 0.13 0.26 0.43 0.33 0.32 0.34 0.38 0.36 0.27 0.26 0.30 0.34 0.35 0.33
0.66 0.71 0.50 0.34 0.35 0.41 0.56 0.59 0.27 0.24 0.14 0.10 0.04 0.00 0.00 0.00 0.00 0.00 0.00 0.00 0.01 0.01 0.00 0.01 0.00 0.00 0.02 0.08 0.15 0.11 0.10 0.21 0.33 0.35 0.36 0.46 0.45 0.41 0.35 0.33 0.38 0.40 0.36
0.75 0.73 0.69 0.73 0.68 0.62 0.53 0.53 0.51 0.38 0.18 0.17 0.15 0.03 0.01 0.01 0.00 0.00 0.00 0.01 0.01 0.02 0.01 0.01 0.01 0.02 0.05 0.09 0.11 0.11 0.12 0.14 0.28 0.41 0.44 0.43 0.45 0.46 0.47 0.43 0.47 0.46 0.42
0.94 0.88 0.61 0.50 0.53 0.58 0.50 0.38 0.46 0.46 0.31 0.33 0.30 0.16 0.05 0.01 0.00 0.00 0.00 0.00 0.00 0.00 0.01 0.02 0.04 0.08 0.08 0.09 0.18 0.17 0.07 0.05 0.10 0.21 0.34 0.41 0.42 0.46 0.52 0.59 0.57 0.65 0.74
1.23 1.26 1.13 1.08 0.96 0.79 0.66 0.55 0.53 0.59 0.62 0.45 0.36 0.41 0.16 0.03 0.01 0.00 0.00 0.00 0.00 0.01 0.02 0.05 0.13 0.21 0.18 0.09 0.08 0.04 0.05 0.10 0.12 0.14 0.27 0.41 0.47 0.50 0.54 0.56 0.67 0.93 1.27
1.25 1.42 1.54 1.41 1.41 1.39 1.14 1.06 0.94 0.81 0.71 0.50 0.45 0.35 0.31 0.17 0.13 0.07 0.02 0.03 0.05 0.07 0.11 0.14 0.15 0.13 0.09 0.05 0.02 0.01 0.03 0.05 0.10 0.15 0.28 0.55 0.94 0.95 0.87 0.94 1.11 1.40 1.60
1.92 1.97 2.00 2.02 1.80 1.74 1.81 1.54 1.39 1.23 1.13 0.96 0.73 0.59 0.45 0.34 0.28 0.29 0.17 0.11 0.11 0.10 0.10 0.09 0.06 0.03 0.02 0.02 0.04 0.08 0.15 0.18 0.21 0.26 0.41 0.68 1.10 1.40 1.37 1.45 1.72 1.97 1.98
1.68 1.97 2.10 1.98 1.91 1.52 1.34 1.28 1.20 1.11 1.01 0.91 0.71 0.59 0.58 0.59 0.50 0.56 0.55 0.35 0.29 0.19 0.13 0.08 0.05 0.04 0.05 0.06 0.11 0.21 0.29 0.35 0.43 0.56 0.78 1.00 1.14 1.39 1.56 1.57 1.62 1.60 1.69
1.08 1.10 1.37 1.43 1.23 1.15 1.07 1.03 0.81 0.74 0.84 0.78 0.74 0.60 0.60 0.58 0.67 0.66 0.61 0.41 0.33 0.20 0.13 0.09 0.08 0.11 0.12 0.14 0.19 0.35 0.46 0.62 0.71 0.83 1.05 1.21 1.21 1.03 0.96 1.09 1.38 1.62 1.53
1.41 1.21 1.04 1.28 1.33 1.04 0.76 0.76 0.64 0.48 0.50 0.52 0.55 0.60 0.56 0.51 0.60 0.65 0.71 0.87 0.90 0.60 0.39 0.30 0.29 0.35 0.39 0.47 0.62 0.81 0.75 0.84 0.84 0.94 1.08 1.16 1.16 0.94 0.78 0.77 1.01 1.33 1.43
0.94 0.94 0.83 0.78 0.79 0.73 0.76 0.74 0.69 0.58 0.48 0.48 0.57 0.63 0.68 0.57 0.58 0.63 0.75 0.90 1.18 1.24 0.79 0.57 0.59 0.57 0.57 0.60 0.65 0.65 0.64 0.85 0.91 0.89 0.90 0.97 1.07 1.14 0.91 0.94 0.93 1.04 1.24
0.82 0.88 0.75 0.64 0.49 0.41 0.45 0.49 0.49 0.52 0.60 0.53 0.49 0.53 0.57 0.62 0.69 0.74 0.73 0.81 0.99 1.24 1.25 0.71 0.62 0.64 0.70 0.77 0.88 0.79 0.75 0.89 0.84 0.85 0.80 0.74 0.72 0.63 0.47 0.48 0.57 0.52 0.44
0.65 0.54 0.66 0.78 0.63 0.48 0.48 0.51 0.51 0.57 0.68 0.66 0.63 0.64 0.64 0.61 0.60 0.61 0.68 0.80 0.95 1.09 1.28 1.09 0.93 0.89 0.91 0.91 0.88 0.74 0.62 0.48 0.44 0.48 0.42 0.35 0.28 0.26 0.24 0.24 0.25 0.28 0.31
0.62 0.50 0.39 0.44 0.62 0.67 0.68 0.69 0.85 0.80 0.68 0.73 0.80 0.81 0.63 0.58 0.55 0.58 0.68 0.80 0.99 1.23 1.49 1.46 1.27 1.14 0.97 0.75 0.56 0.38 0.25 0.17 0.12 0.21 0.18 0.15 0.16 0.16 0.14 0.15 0.18 0.20 0.23
0.32 0.34 0.36 0.35 0.34 0.40 0.51 0.68 0.72 0.71 0.75 0.72 0.64 0.59 0.56 0.57 0.71 0.81 0.87 0.89 0.89 0.86 0.82 0.73 0.54 0.44 0.39 0.34 0.31 0.24 0.18 0.14 0.11 0.18 0.18 0.16 0.17 0.14 0.12 0.13 0.16 0.18 0.22
0.24 0.26 0.30 0.34 0.35 0.23 0.27 0.29 0.28 0.36 0.38 0.36 0.32 0.34 0.39 0.47 0.52 0.56 0.59 0.58 0.53 0.49 0.44 0.41 0.45 0.42 0.37 0.30 0.31 0.30 0.28 0.25 0.22 0.19 0.20 0.18 0.20 0.19 0.17 0.15 0.12 0.09 0.08
0.16 0.10 0.13 0.11 0.15 0.17 0.28 0.23 0.19 0.25 0.35 0.44 0.51 0.52 0.50 0.50 0.47 0.40 0.37 0.35 0.39 0.44 0.57 0.69 0.61 0.53 0.38 0.28 0.26 0.25 0.26 0.22 0.23 0.19 0.17 0.17 0.19 0.18 0.16 0.18 0.15 0.14 0.14
0.17 0.20 0.22 0.16 0.16 0.26 0.46 0.37 0.35 0.37 0.37 0.37 0.36 0.31 0.31 0.35 0.27 0.24 0.21 0.20 0.23 0.41 0.55 0.65 0.59 0.39 0.23 0.24 0.27 0.30 0.40 0.39 0.35 0.16 0.20 0.17 0.14 0.14 0.10 0.10 0.15 0.17 0.18
0.38 0.53 0.56 0.60 0.70 0.82 0.91 0.75 0.61 0.46 0.43 0.37 0.33 0.29 0.22 0.14 0.10 0.07 0.06 0.11 0.23 0.32 0.32 0.23 0.14 0.13 0.16 0.21 0.46 0.47 0.36 0.37 0.28 0.13 0.20 0.21 0.15 0.18 0.17 0.19 0.30 0.30 0.30
0.88 0.78 0.69 0.82 0.89 0.82 0.70 0.53 0.49 0.36 0.31 0.29 0.24 0.12 0.05 0.02 0.01 0.03 0.08 0.22 0.16 0.11 0.05 0.06 0.07 0.11 0.20 0.24 0.30 0.46 0.46 0.38 0.30 0.19 0.18 0.32 0.12 0.12 0.15 0.14 0.26 0.33 0.35
0.81 0.71 0.57 0.48 0.45 0.43 0.29 0.18 0.12 0.10 0.08 0.05 0.03 0.01 0.02 0.03 0.02 0.11 0.17 0.23 0.08 0.01 0.02 0.06 0.14 0.14 0.19 0.27 0.31 0.49 0.57 0.53 0.47 0.23 0.19 0.32 0.22 0.19 0.16 0.16 0.25 0.46 0.47
0.60 0.49 0.38 0.33 0.24 0.14 0.08 0.05 0.05 0.03 0.02 0.01 0.00 0.00 0.02 0.03 0.07 0.23 0.17 0.05 0.03 0.03 0.12 0.16 0.15 0.15 0.16 0.17 0.24 0.22 0.39 0.90 0.69 0.60 0.31 0.73 0.56 0.47 0.73 0.28 0.19 0.21 0.31